Golden Valley, AZ

6:26 AM MST on February 07, 2016 (GMT -0700)
Kingman

Weather History for KIGM - December, 2013

Change the Weather History Date:

Tuesday, December 24, 2013

  Actual Average Record
Temperature  
Mean Temperature 45 °F 42 °F  
Max Temperature 60 °F 53 °F 75 °F (1950)
Min Temperature 29 °F 31 °F 12 °F (1990)
Degree Days  
Heating Degree Days 20 23  
Month to date heating degree days 595 525  
Since 1 July heating degree days 1228 1091  
Cooling Degree Days 0 0  
Month to date cooling degree days 0 0  
Year to date cooling degree days 2106 2093  
Moisture  
Dew Point 25 °F    
Average Humidity 47    
Maximum Humidity 69    
Minimum Humidity 25    
Precipitation  
Precipitation 0.00 in 0.02 in 1.57 in (1945)
Month to date precipitation 0.04 0.55  
Year to date precipitation 6.72 8.20  
Sea Level Pressure  
Sea Level Pressure 30.21 in    
Wind  
Wind Speed 8 mph (ENE)    
Max Wind Speed 13 mph    
Max Gust Speed 17 mph    
Visibility 10 miles    
Events      
T = Trace of Precipitation, MM = Missing Value Source: NWS Daily Summary

Daily Weather History Graph

Daily Weather History Graph

Search for Another Location

Airport or City:

Trip Planner

Search our weather history database for the weather conditions in past years. The results will help you decide how hot, cold, wet, or windy it might be!

Date:

Astronomy

Dec. 24, 2013 Rise Set
Actual Time 7:42 AM MST 5:29 PM MST
Civil Twilight 7:13 AM MST 5:57 PM MST
Nautical Twilight 6:42 AM MST 6:29 PM MST
Astronomical Twilight 6:11 AM MST 7:00 PM MST
Moon No Moon Rise 11:52 AM MST (12/24)
Length of Visible Light 10h 43m
Length of Day
9h 47m
Waning Gibbous, 58% of the Moon is Illuminated
Dec 24
Waning Gibbous
Dec 25
Last Quarter
Jan 1
New
Jan 7
First Quarter
Jan 15
Full

Hourly Weather History & Observations

Time (MST) Temp. Windchill Dew Point Humidity Pressure Visibility Wind Dir Wind Speed Gust Speed Precip Events Conditions
12:51 AM 35.1 °F 29.3 °F 24.1 °F 64% 30.26 in 10.0 mi East 6.9 mph - N/A   Clear
1:51 AM 37.0 °F 31.0 °F 24.1 °F 59% 30.24 in 10.0 mi ENE 8.1 mph - N/A   Clear
2:51 AM 39.9 °F 35.1 °F 24.1 °F 53% 30.21 in 10.0 mi NNE 6.9 mph - N/A   Clear
3:51 AM 34.0 °F 29.8 °F 23.0 °F 64% 30.22 in 10.0 mi ENE 4.6 mph - N/A   Clear
4:51 AM 35.1 °F 28.6 °F 23.0 °F 61% 30.21 in 10.0 mi NNE 8.1 mph - N/A   Clear
5:51 AM 33.1 °F 25.5 °F 23.0 °F 66% 30.22 in 10.0 mi ENE 9.2 mph - N/A   Clear
6:51 AM 30.9 °F 26.2 °F 21.9 °F 69% 30.24 in 10.0 mi ENE 4.6 mph - N/A   Clear
7:51 AM 30.0 °F - 21.9 °F 72% 30.26 in 10.0 mi Calm Calm - N/A   Clear
8:51 AM 41.0 °F 38.0 °F 24.1 °F 51% 30.27 in 10.0 mi East 4.6 mph - N/A   Clear
9:51 AM 46.9 °F - 25.0 °F 42% 30.24 in 10.0 mi ENE 5.8 mph - N/A   Clear
10:51 AM 53.1 °F - 24.1 °F 32% 30.22 in 10.0 mi NNE 9.2 mph - N/A   Clear
11:51 AM 57.0 °F - 25.0 °F 29% 30.21 in 10.0 mi North 5.8 mph - N/A   Clear
12:51 PM 59.0 °F - 25.0 °F 27% 30.17 in 10.0 mi NNE 9.2 mph - N/A   Clear
1:51 PM 60.1 °F - 25.0 °F 26% 30.14 in 10.0 mi North 9.2 mph - N/A   Clear
2:51 PM 60.1 °F - 26.1 °F 27% 30.14 in 10.0 mi NNE 11.5 mph - N/A   Clear
3:51 PM 57.0 °F - 26.1 °F 30% 30.15 in 10.0 mi ENE 5.8 mph - N/A   Clear
4:51 PM 57.0 °F - 27.0 °F 32% 30.15 in 10.0 mi ENE 10.4 mph - N/A   Clear
5:51 PM 48.9 °F - 27.0 °F 43% 30.17 in 10.0 mi ENE 10.4 mph - N/A   Clear
6:51 PM 44.1 °F 39.0 °F 27.0 °F 51% 30.20 in 10.0 mi ENE 9.2 mph - N/A   Clear
7:51 PM 43.0 °F 37.2 °F 27.0 °F 53% 30.23 in 10.0 mi East 10.4 mph - N/A   Clear
8:51 PM 43.0 °F 38.2 °F 26.1 °F 51% 30.22 in 10.0 mi East 8.1 mph - N/A   Clear
9:51 PM 43.0 °F 37.2 °F 26.1 °F 51% 30.23 in 10.0 mi ENE 10.4 mph - N/A   Clear
10:51 PM 39.9 °F 33.9 °F 25.0 °F 55% 30.23 in 10.0 mi East 9.2 mph - N/A   Clear
11:51 PM 41.0 °F 35.8 °F 24.1 °F 51% 30.24 in 10.0 mi ENE 8.1 mph - N/A   Clear